TimeCDT,TemperatureF,Dew PointF,Humidity,Sea Level PressureIn,VisibilityMPH,Wind Direction,Wind SpeedMPH,Gust SpeedMPH,PrecipitationIn,Events,Conditions,WindDirDegrees,DateUTC
12:15 AM,72.5,68.0,86,30.26,7.0,Calm,Calm,-,N/A,,Clear,0,2013-07-16 05:15:00
12:35 AM,71.6,66.9,85,30.26,7.0,Calm,Calm,-,N/A,,Clear,0,2013-07-16 05:35:00
12:55 AM,70.9,66.2,85,30.26,7.0,Calm,Calm,-,N/A,,Clear,0,2013-07-16 05:55:00
1:15 AM,70.7,66.2,86,30.26,7.0,Calm,Calm,-,N/A,,Clear,0,2013-07-16 06:15:00
1:35 AM,70.3,65.3,84,30.26,7.0,East,3.5,-,N/A,,Clear,90,2013-07-16 06:35:00
1:55 AM,70.2,65.3,85,30.26,7.0,Calm,Calm,-,N/A,,Clear,0,2013-07-16 06:55:00
2:15 AM,69.8,64.9,84,30.26,7.0,Calm,Calm,-,N/A,,Clear,0,2013-07-16 07:15:00
2:35 AM,69.3,64.6,85,30.26,10.0,Calm,Calm,-,N/A,,Clear,0,2013-07-16 07:35:00
2:55 AM,68.9,64.4,86,30.26,7.0,Calm,Calm,-,N/A,,Clear,0,2013-07-16 07:55:00
3:15 AM,68.9,64.6,86,30.26,7.0,Calm,Calm,-,N/A,,Clear,0,2013-07-16 08:15:00
3:35 AM,68.9,62.8,81,30.26,7.0,East,3.5,-,N/A,,Clear,80,2013-07-16 08:35:00
3:55 AM,68.9,61.0,76,30.26,7.0,Calm,Calm,-,N/A,,Clear,0,2013-07-16 08:55:00
4:15 AM,69.1,60.6,74,30.27,7.0,Calm,Calm,-,N/A,,Clear,0,2013-07-16 09:15:00
4:35 AM,69.1,60.6,74,30.27,7.0,Calm,Calm,-,N/A,,Clear,0,2013-07-16 09:35:00
4:55 AM,68.9,61.0,76,30.28,5.0,Calm,Calm,-,N/A,,Haze,0,2013-07-16 09:55:00
5:15 AM,68.2,61.5,79,30.28,7.0,Calm,Calm,-,N/A,,Clear,0,2013-07-16 10:15:00
5:35 AM,67.6,61.3,80,30.29,7.0,Calm,Calm,-,N/A,,Clear,0,2013-07-16 10:35:00
6:15 AM,68.7,63.1,82,30.30,4.0,Calm,Calm,-,N/A,,Haze,0,2013-07-16 11:15:00
6:35 AM,71.1,65.7,83,30.30,5.0,Calm,Calm,-,N/A,,Haze,0,2013-07-16 11:35:00
6:55 AM,74.5,68.5,82,30.31,7.0,Calm,Calm,-,N/A,,Clear,0,2013-07-16 11:55:00
7:15 AM,76.6,68.9,77,30.32,7.0,Calm,Calm,-,N/A,,Clear,0,2013-07-16 12:15:00
7:35 AM,79.3,70.0,73,30.32,7.0,Calm,Calm,-,N/A,,Clear,0,2013-07-16 12:35:00
7:55 AM,82.0,71.8,71,30.32,7.0,Calm,Calm,-,N/A,,Clear,0,2013-07-16 12:55:00
8:15 AM,84.0,73.4,70,30.32,5.0,Calm,Calm,-,N/A,,Haze,0,2013-07-16 13:15:00
8:35 AM,85.6,74.1,68,30.33,5.0,Calm,Calm,-,N/A,,Haze,0,2013-07-16 13:35:00
8:55 AM,86.4,74.1,67,30.33,5.0,Calm,Calm,-,N/A,,Haze,0,2013-07-16 13:55:00
9:15 AM,87.1,73.8,64,30.32,7.0,South,3.5,-,N/A,,Clear,180,2013-07-16 14:15:00
9:35 AM,88.7,73.9,62,30.32,7.0,WSW,5.8,-,N/A,,Clear,240,2013-07-16 14:35:00
9:55 AM,89.4,73.2,59,30.32,7.0,SW,4.6,-,N/A,,Clear,220,2013-07-16 14:55:00
10:15 AM,90.3,73.0,57,30.32,7.0,SW,6.9,-,N/A,,Clear,230,2013-07-16 15:15:00
10:35 AM,91.2,73.8,56,30.32,7.0,SW,4.6,-,N/A,,Clear,220,2013-07-16 15:35:00
10:55 AM,91.0,72.7,55,30.31,7.0,WSW,4.6,-,N/A,,Clear,240,2013-07-16 15:55:00
11:15 AM,91.9,72.0,52,30.31,7.0,Calm,Calm,-,N/A,,Clear,0,2013-07-16 16:15:00
11:35 AM,92.8,73.0,52,30.31,7.0,Calm,Calm,-,N/A,,Clear,0,2013-07-16 16:35:00
11:55 AM,95.5,73.0,48,30.31,7.0,SSW,3.5,-,N/A,,Scattered Clouds,210,2013-07-16 16:55:00
12:15 PM,96.3,72.9,47,30.31,7.0,SW,3.5,-,N/A,,Clear,220,2013-07-16 17:15:00
12:35 PM,94.8,72.3,48,30.31,7.0,SSW,6.9,-,N/A,,Scattered Clouds,200,2013-07-16 17:35:00
12:55 PM,96.6,73.4,47,30.30,7.0,SSE,3.5,-,N/A,,Scattered Clouds,160,2013-07-16 17:55:00
1:15 PM,96.8,70.9,43,30.30,7.0,WSW,5.8,-,N/A,,Scattered Clouds,250,2013-07-16 18:15:00
1:35 PM,97.0,70.9,43,30.30,5.0,Calm,Calm,-,N/A,,Haze,0,2013-07-16 18:35:00
1:55 PM,97.2,71.1,43,30.29,5.0,SW,4.6,-,N/A,,Haze,230,2013-07-16 18:55:00
2:15 PM,98.1,70.7,41,30.29,7.0,SW,5.8,-,N/A,,Clear,220,2013-07-16 19:15:00
2:35 PM,97.3,70.0,41,30.29,7.0,SSW,3.5,-,N/A,,Scattered Clouds,210,2013-07-16 19:35:00
3:55 PM,98.6,73.2,44,30.27,7.0,Calm,Calm,-,N/A,,Clear,0,2013-07-16 20:55:00
4:15 PM,98.8,68.7,37,30.27,7.0,Calm,Calm,-,N/A,,Scattered Clouds,0,2013-07-16 21:15:00
4:35 PM,101.1,73.4,41,30.27,7.0,Calm,Calm,-,N/A,,Scattered Clouds,0,2013-07-16 21:35:00
4:55 PM,99.7,74.7,45,30.27,7.0,SE,3.5,-,N/A,,Mostly Cloudy,130,2013-07-16 21:55:00
5:15 PM,97.7,73.8,46,30.27,7.0,SE,3.5,-,N/A,,Mostly Cloudy,140,2013-07-16 22:15:00
5:35 PM,97.2,75.2,49,30.27,7.0,Calm,Calm,-,N/A,,Scattered Clouds,0,2013-07-16 22:35:00
5:55 PM,97.0,72.9,46,30.26,5.0,SE,3.5,-,N/A,,Haze,130,2013-07-16 22:55:00
6:15 PM,95.7,73.0,48,30.26,7.0,SE,3.5,-,N/A,,Scattered Clouds,130,2013-07-16 23:15:00
6:35 PM,94.1,73.0,50,30.26,7.0,Calm,Calm,-,N/A,,Clear,0,2013-07-16 23:35:00
6:55 PM,93.4,71.4,49,30.26,7.0,Calm,Calm,-,N/A,,Clear,0,2013-07-16 23:55:00
7:15 PM,92.3,72.5,52,30.26,7.0,Calm,Calm,-,N/A,,Clear,0,2013-07-17 00:15:00
7:35 PM,90.5,71.6,54,30.26,7.0,Calm,Calm,-,N/A,,Clear,0,2013-07-17 00:35:00
7:55 PM,87.1,70.3,57,30.26,5.0,Calm,Calm,-,N/A,,Haze,0,2013-07-17 00:55:00
8:15 PM,82.9,68.5,62,30.26,7.0,Calm,Calm,-,N/A,,Clear,0,2013-07-17 01:15:00
8:35 PM,79.9,67.1,65,30.26,5.0,Calm,Calm,-,N/A,,Haze,0,2013-07-17 01:35:00
8:55 PM,77.9,67.1,69,30.27,7.0,Calm,Calm,-,N/A,,Clear,0,2013-07-17 01:55:00
9:15 PM,76.6,66.4,70,30.28,7.0,Calm,Calm,-,N/A,,Clear,0,2013-07-17 02:15:00
9:35 PM,75.7,66.2,72,30.29,7.0,Calm,Calm,-,N/A,,Clear,0,2013-07-17 02:35:00
10:15 PM,74.3,64.8,72,30.28,10.0,Calm,Calm,-,N/A,,Clear,0,2013-07-17 03:15:00
10:35 PM,73.4,64.4,73,30.29,10.0,Calm,Calm,-,N/A,,Clear,0,2013-07-17 03:35:00
10:55 PM,73.2,65.1,76,30.29,10.0,Calm,Calm,-,N/A,,Clear,0,2013-07-17 03:55:00
11:15 PM,72.9,65.3,77,30.29,7.0,Calm,Calm,-,N/A,,Clear,0,2013-07-17 04:15:00
11:35 PM,72.1,64.4,77,30.29,7.0,Calm,Calm,-,N/A,,Clear,0,2013-07-17 04:35:00